User: anonymous   Login
Location: Gollag?dem
(16.8053°N, 80.8024°E)
Time: 16:21:15
(UTC+00:00)
Language:

Chandra Rocket (1) - Orbit

View from above orbital plane
View from above orbital plane
View from above satellite
View from above satellite

Ground track
Ground track

The orbit data is extracted from the following two-line orbital elements,

1 25868U 99040C   20292.70903657  .00000599  00000-0  10498-3 0  9991
2 25868  28.4287 258.0481 4429347 243.7259  64.6554  6.56000935476534
Epoch (UTC): 18 October 2020 17:01:00
Eccentricity: 0.4429347
inclination: 28.4287°
perigee height: 337 km
apogee height: 11015 km
right ascension of ascending node: 258.0481°
argument of perigee: 243.7259°
revolutions per day: 6.56000935
mean anomaly at epoch: 64.6554°
orbit number at epoch: 47653

The dashed part of the orbit path shows where the satellite is in the earth's shadow,  

DLR